NR0A-4 Weather Reports


time (UTC)temp
C
wind
direction
speed
KPH
gust
KPH
rain 1hr
cm
rain 24hr
cm
rain mn
cm
humidity
%
barometer
mb
20180718105539 18 182 0.0 1.6 0.00 0.00 0.00 99 1018.8
20180718105039 18 179 0.0 0.0 0.00 0.00 0.00 99 1018.7
20180718104538 18 161 0.0 1.6 0.00 0.00 0.00 98 1018.5
20180718104038 18 186 0.0 0.0 0.00 0.00 0.00 98 1018.7
20180718103538 18 206 0.0 1.6 0.00 0.00 0.00 98 1018.5
20180718103038 18 197 0.0 1.6 0.00 0.00 0.00 98 1018.7
20180718102538 18 48 0.0 0.0 0.00 0.00 0.00 98 1018.5
20180718102038 18 48 0.0 0.0 0.00 0.00 0.00 98 1018.5
20180718101538 18 48 0.0 0.0 0.00 0.00 0.00 98 1018.5
20180718101038 18 48 0.0 0.0 0.00 0.00 0.00 98 1018.5
20180718100538 18 48 0.0 0.0 0.00 0.00 0.00 97 1018.5
20180718100038 18 48 0.0 0.0 0.00 0.00 0.00 97 1018.4
20180718095538 18 48 0.0 0.0 0.00 0.00 0.00 97 1018.4
20180718095038 18 48 0.0 0.0 0.00 0.00 0.00 97 1018.4
20180718094538 18 48 0.0 0.0 0.00 0.00 0.00 97 1018.4
20180718094038 18 48 0.0 0.0 0.00 0.00 0.00 96 1018.4
20180718093538 18 26 0.0 3.2 0.00 0.00 0.00 96 1018.5
20180718093037 18 56 0.0 0.0 0.00 0.00 0.00 96 1018.7
20180718092537 18 56 0.0 0.0 0.00 0.00 0.00 96 1018.7
20180718092037 18 56 0.0 0.0 0.00 0.00 0.00 96 1018.7
20180718091537 18 56 0.0 0.0 0.00 0.00 0.00 96 1018.7
20180718091037 18 38 0.0 0.0 0.00 0.00 0.00 96 1018.8
20180718090537 18 38 0.0 0.0 0.00 0.00 0.00 96 1018.8
20180718090037 18 38 0.0 0.0 0.00 0.00 0.00 96 1018.9
20180718085537 18 38 0.0 0.0 0.00 0.00 0.00 96 1018.9
20180718085037 18 17 3.2 3.2 0.00 0.00 0.00 96 1018.9
20180718084537 18 51 0.0 0.0 0.00 0.00 0.00 95 1018.9
20180718084037 18 51 0.0 0.0 0.00 0.00 0.00 95 1019.0
20180718083537 18 51 0.0 0.0 0.00 0.00 0.00 95 1018.9
20180718083037 18 51 0.0 0.0 0.00 0.00 0.00 95 1018.9
20180718082537 18 51 0.0 0.0 0.00 0.00 0.00 95 1019.0
20180718082036 18 37 0.0 1.6 0.00 0.00 0.00 95 1019.0
20180718081536 18 44 0.0 0.0 0.00 0.00 0.00 95 1018.9
20180718081036 18 61 0.0 0.0 0.00 0.00 0.00 94 1018.9
20180718080536 18 65 4.8 8.0 0.00 0.00 0.00 94 1019.0
20180718080036 18 48 3.2 8.0 0.00 0.00 0.00 94 1019.0
20180718075536 18 30 0.0 0.0 0.00 0.00 0.00 94 1019.2
20180718075036 18 54 0.0 1.6 0.00 0.00 0.00 94 1019.2
20180718074536 18 35 0.0 0.0 0.00 0.00 0.00 94 1019.3
20180718074036 18 76 1.6 1.6 0.00 0.00 0.00 94 1019.3
20180718073536 18 51 0.0 0.0 0.00 0.00 0.00 94 1019.4
20180718073036 18 114 0.0 1.6 0.00 0.00 0.00 94 1019.4
20180718072536 18 93 0.0 0.0 0.00 0.00 0.00 94 1019.3
20180718072036 18 54 0.0 0.0 0.00 0.00 0.00 94 1019.3
20180718071536 18 66 1.6 3.2 0.00 0.00 0.00 94 1019.3
20180718071036 18 85 3.2 4.8 0.00 0.00 0.00 93 1019.3
20180718070536 18 55 1.6 4.8 0.00 0.00 0.00 93 1019.3
20180718070036 18 69 3.2 4.8 0.00 0.00 0.00 93 1019.4
20180718065536 18 63 1.6 8.0 0.00 0.00 0.00 93 1019.4
20180718065036 18 75 1.6 4.8 0.00 0.00 0.00 93 1019.3
20180718064536 19 74 3.2 4.8 0.00 0.00 0.00 93 1019.4
20180718064040 19 58 0.0 3.2 0.00 0.00 0.00 93 1019.4
20180718063540 19 41 3.2 4.8 0.00 0.00 0.00 93 1019.4
20180718063040 19 42 0.0 0.0 0.00 0.00 0.00 92 1019.4
20180718062540 19 42 0.0 0.0 0.00 0.00 0.00 92 1019.3
20180718062040 19 42 0.0 0.0 0.00 0.00 0.00 92 1019.3
20180718061539 19 42 0.0 0.0 0.00 0.00 0.00 91 1019.4
20180718061039 19 42 0.0 0.0 0.00 0.00 0.00 91 1019.4
20180718060539 19 42 0.0 0.0 0.00 0.00 0.00 91 1019.4
20180718060038 19 42 0.0 0.0 0.00 0.00 0.00 91 1019.5
20180718055538 20 42 0.0 0.0 0.00 0.00 0.00 90 1019.5
20180718055038 20 42 0.0 0.0 0.00 0.00 0.00 90 1019.5
20180718054538 20 42 0.0 0.0 0.00 0.00 0.00 90 1019.6
20180718054038 20 42 0.0 0.0 0.00 0.00 0.00 91 1019.7
20180718053538 20 42 0.0 0.0 0.00 0.00 0.00 91 1019.7
20180718053037 20 42 0.0 0.0 0.00 0.00 0.00 91 1019.7
20180718052537 20 42 0.0 0.0 0.00 0.00 0.00 91 1019.7
20180718052037 20 42 0.0 0.0 0.00 0.00 0.00 91 1019.7
20180718051537 20 42 0.0 0.0 0.00 0.00 0.00 91 1019.7
20180718051037 20 42 0.0 0.0 0.00 0.00 0.00 90 1019.8
20180718050537 20 42 0.0 0.0 0.00 0.00 0.00 90 1019.8
20180718050037 20 42 0.0 0.0 0.00 0.00 0.00 90 1019.9
20180718045536 20 42 0.0 0.0 0.00 0.00 0.00 89 1019.8
20180718045037 20 42 0.0 0.0 0.00 0.00 0.00 89 1019.6
20180718044536 20 42 0.0 0.0 0.00 0.00 0.00 89 1019.6
20180718044036 20 42 0.0 0.0 0.00 0.00 0.00 89 1019.7
20180718043536 20 42 0.0 0.0 0.00 0.00 0.00 89 1019.8
20180718043036 20 42 0.0 0.0 0.00 0.00 0.00 88 1019.7
20180718042536 20 42 0.0 0.0 0.00 0.00 0.00 88 1019.7
20180718042036 20 42 0.0 0.0 0.00 0.00 0.00 88 1019.6
20180718041536 20 42 0.0 0.0 0.00 0.00 0.00 87 1019.5
20180718041036 20 42 1.6 0.0 0.00 0.00 0.00 87 1019.5
20180718040536 20 44 1.6 3.2 0.00 0.00 0.00 86 1019.4
20180718040036 21 64 4.8 8.0 0.00 0.00 0.00 86 1019.4
20180718035536 21 53 4.8 8.0 0.00 0.00 0.00 86 1019.3
20180718035036 21 83 4.8 12.9 0.00 0.00 0.00 85 1019.3
20180718034536 21 62 8.0 11.3 0.00 0.00 0.00 85 1019.3
20180718034036 21 77 8.0 12.9 0.00 0.00 0.00 85 1019.3
20180718033536 21 78 8.0 11.3 0.00 0.00 0.00 84 1019.2
20180718033036 21 79 8.0 9.7 0.00 0.00 0.00 84 1019.1
20180718032540 21 69 4.8 11.3 0.00 0.00 0.00 84 1019.1
20180718032040 21 77 8.0 14.5 0.00 0.00 0.00 83 1019.2
20180718031540 21 76 4.8 9.7 0.00 0.00 0.00 83 1019.1
20180718031040 21 79 8.0 12.9 0.00 0.00 0.00 83 1019.0
20180718030540 22 58 4.8 11.3 0.00 0.00 0.00 82 1019.1
20180718030040 22 70 4.8 12.9 0.00 0.00 0.00 82 1019.2
20180718025540 22 79 8.0 11.3 0.00 0.00 0.00 82 1019.2
20180718025040 22 91 8.0 14.5 0.00 0.00 0.00 82 1019.2
20180718024540 22 85 4.8 4.8 0.00 0.00 0.00 82 1019.1
20180718024040 22 68 4.8 11.3 0.00 0.00 0.00 82 1019.0
20180718023540 22 60 3.2 4.8 0.00 0.00 0.00 82 1018.8
20180718023040 22 76 4.8 8.0 0.00 0.00 0.00 81 1018.7
20180718022540 22 44 3.2 8.0 0.00 0.00 0.00 81 1018.5
20180718022040 22 62 4.8 4.8 0.00 0.00 0.00 80 1018.5
20180718021540 23 40 4.8 11.3 0.00 0.00 0.00 80 1018.7
20180718021040 23 25 4.8 8.0 0.00 0.00 0.00 80 1018.8
20180718020540 23 61 11.3 16.1 0.00 0.00 0.00 79 1018.7
20180718020040 23 60 8.0 14.5 0.00 0.00 0.00 79 1018.8
20180718015540 23 73 8.0 12.9 0.00 0.00 0.00 79 1018.9
20180718015038 23 90 4.8 9.7 0.00 0.00 0.00 79 1018.8
20180718014538 23 56 3.2 4.8 0.00 0.00 0.00 79 1018.8
20180718014038 23 83 8.0 9.7 0.00 0.00 0.00 79 1018.9
20180718013538 23 76 8.0 12.9 0.00 0.00 0.00 79 1018.9
20180718013038 23 61 9.7 14.5 0.00 0.00 0.00 78 1019.0
20180718012538 23 61 8.0 12.9 0.00 0.00 0.00 77 1018.9
20180718012038 23 86 4.8 12.9 0.00 0.00 0.00 76 1019.0
20180718011538 24 49 3.2 8.0 0.00 0.00 0.00 75 1018.9
20180718011038 24 56 8.0 8.0 0.00 0.00 0.00 73 1018.9
20180718010538 24 85 9.7 12.9 0.00 0.00 0.00 72 1018.9
20180718010038 24 26 4.8 12.9 0.00 0.00 0.00 70 1018.8
20180718005538 24 29 4.8 8.0 0.00 0.00 0.00 68 1018.8
20180718005038 24 53 3.2 9.7 0.00 0.00 0.00 68 1018.7
20180718004538 25 49 4.8 8.0 0.00 0.00 0.00 67 1018.8
20180718004038 25 40 4.8 14.5 0.00 0.00 0.00 67 1018.8
20180718003538 25 46 4.8 8.0 0.00 0.00 0.00 67 1018.7
20180718003038 25 52 3.2 3.2 0.00 0.00 0.00 67 1018.7
20180718002538 25 32 4.8 4.8 0.00 0.00 0.00 66 1018.8
20180718002038 25 30 4.8 9.7 0.00 0.00 0.00 67 1018.7
20180718001538 25 100 8.0 8.0 0.00 0.00 0.00 66 1018.8
20180718001038 25 59 1.6 3.2 0.00 0.00 0.00 68 1018.8
20180718000537 25 84 3.2 8.0 0.00 0.00 0.00 67 1018.9
20180718000037 25 82 4.8 9.7 0.00 0.00 0.00 66 1018.8
20180717235537 25 35 3.2 8.0 0.00 0.00 0.00 66 1018.7
20180717235037 25 30 4.8 8.0 0.00 0.00 0.00 65 1018.7
20180717234540 25 80 4.8 8.0 0.00 0.00 0.00 66 1018.8
20180717234040 25 116 4.8 9.7 0.00 0.00 0.00 64 1018.9
20180717233540 25 34 1.6 3.2 0.00 0.00 0.00 63 1018.9
20180717233040 25 76 3.2 8.0 0.00 0.00 0.00 63 1019.0
20180717232540 25 74 4.8 8.0 0.00 0.00 0.00 64 1018.9
20180717232040 25 79 3.2 9.7 0.00 0.00 0.00 63 1019.1
20180717231540 25 74 8.0 11.3 0.00 0.00 0.00 63 1019.1
20180717231040 26 67 3.2 8.0 0.00 0.00 0.00 64 1019.0
20180717230540 26 74 4.8 11.3 0.00 0.00 0.00 64 1019.0
20180717230040 26 55 3.2 4.8 0.00 0.00 0.00 64 1019.0
20180717225540 26 94 3.2 8.0 0.00 0.00 0.00 62 1019.1
20180717225038 26 32 4.8 8.0 0.00 0.00 0.00 62 1019.1
20180717224537 26 70 3.2 8.0 0.00 0.00 0.00 63 1019.2
20180717224037 26 89 4.8 11.3 0.00 0.00 0.00 62 1019.2
20180717223537 26 75 8.0 14.5 0.00 0.00 0.00 63 1019.3
20180717223037 26 70 9.7 11.3 0.00 0.00 0.00 61 1019.4
20180717222538 26 63 3.2 8.0 0.00 0.00 0.00 64 1019.3
20180717222037 26 86 8.0 11.3 0.00 0.00 0.00 63 1019.3
20180717221537 26 67 4.8 9.7 0.00 0.00 0.00 62 1019.4
20180717221037 26 70 3.2 8.0 0.00 0.00 0.00 62 1019.4
20180717220537 26 62 8.0 12.9 0.00 0.00 0.00 61 1019.5
20180717220037 26 53 4.8 9.7 0.00 0.00 0.00 61 1019.5
20180717215537 26 58 9.7 14.5 0.00 0.00 0.00 61 1019.5
20180717215037 26 74 8.0 9.7 0.00 0.00 0.00 61 1019.6
20180717214537 26 25 4.8 11.3 0.00 0.00 0.00 61 1019.6
20180717214037 26 56 4.8 9.7 0.00 0.00 0.00 63 1019.6
20180717213537 26 71 4.8 14.5 0.00 0.00 0.00 63 1019.6
20180717213037 26 82 9.7 12.9 0.00 0.00 0.00 60 1019.7
20180717212541 26 86 4.8 9.7 0.00 0.00 0.00 63 1019.7
20180717212041 26 43 8.0 8.0 0.00 0.00 0.00 63 1019.7
20180717211540 26 64 9.7 11.3 0.00 0.00 0.00 63 1019.8
20180717211041 26 42 8.0 12.9 0.00 0.00 0.00 64 1019.8
20180717210540 26 68 4.8 9.7 0.00 0.00 0.00 66 1019.8
20180717210041 26 95 4.8 11.3 0.00 0.00 0.00 68 1019.7
20180717205540 25 70 3.2 11.3 0.00 0.00 0.00 69 1019.8
20180717205039 25 87 8.0 11.3 0.00 0.00 0.00 67 1019.8
20180717204539 25 78 11.3 20.9 0.00 0.00 0.00 66 1019.8
20180717204039 26 72 8.0 11.3 0.00 0.00 0.00 67 1019.8
20180717203539 26 63 4.8 11.3 0.00 0.00 0.00 69 1019.8
20180717203039 26 44 9.7 14.5 0.00 0.00 0.00 68 1019.9
20180717202539 25 68 4.8 12.9 0.00 0.00 0.00 70 1019.9
20180717202039 25 86 4.8 9.7 0.00 0.00 0.00 71 1020.0
20180717201539 25 62 11.3 14.5 0.00 0.00 0.00 70 1020.0
20180717201039 25 50 9.7 16.1 0.00 0.00 0.00 70 1020.1
20180717200539 25 48 4.8 9.7 0.00 0.00 0.00 70 1020.1
20180717200039 25 60 3.2 8.0 0.00 0.00 0.00 69 1020.1
20180717195539 25 74 11.3 14.5 0.00 0.00 0.00 68 1020.1
20180717195039 25 45 8.0 9.7 0.00 0.00 0.00 70 1020.1
20180717194539 25 63 9.7 14.5 0.00 0.00 0.00 69 1020.0
20180717194039 25 63 4.8 19.3 0.00 0.00 0.00 72 1020.0
20180717193539 25 77 9.7 14.5 0.00 0.00 0.00 72 1019.9
20180717193039 25 73 9.7 11.3 0.00 0.00 0.00 71 1019.8
20180717192539 25 72 8.0 11.3 0.00 0.00 0.00 71 1019.9
20180717192039 25 32 3.2 9.7 0.00 0.00 0.00 71 1019.9
20180717191539 25 83 4.8 4.8 0.00 0.00 0.00 70 1019.9
20180717191039 25 75 9.7 14.5 0.00 0.00 0.00 68 1019.9
20180717190539 26 50 8.0 9.7 0.00 0.00 0.00 67 1019.9
20180717190039 26 70 8.0 14.5 0.00 0.00 0.00 65 1019.9
20180717185539 25 66 9.7 16.1 0.00 0.00 0.00 66 1019.9
20180717185039 25 21 4.8 9.7 0.00 0.00 0.00 64 1019.9
20180717184545 25 58 4.8 11.3 0.00 0.00 0.00 66 1020.0
20180717184039 25 29 4.8 8.0 0.00 0.00 0.00 67 1019.9
20180717183539 25 28 4.8 12.9 0.00 0.00 0.00 69 1019.9
20180717183039 25 17 0.0 3.2 0.00 0.00 0.00 70 1020.0
20180717182539 25 68 4.8 12.9 0.00 0.00 0.00 70 1020.0
20180717182039 25 64 4.8 3.2 0.00 0.00 0.00 70 1020.1
20180717181539 25 55 3.2 8.0 0.00 0.00 0.00 71 1020.1
20180717181039 25 33 4.8 9.7 0.00 0.00 0.00 71 1020.1
20180717180539 25 64 4.8 9.7 0.00 0.00 0.00 70 1020.1
20180717180038 26 32 8.0 12.9 0.00 0.00 0.00 69 1020.1
20180717175538 26 30 1.6 3.2 0.00 0.00 0.00 67 1020.2
20180717175038 26 336 0.0 4.8 0.00 0.00 0.00 66 1020.2
20180717174538 26 83 1.6 3.2 0.00 0.00 0.00 65 1020.3
20180717174038 26 166 3.2 8.0 0.00 0.00 0.00 64 1020.5
20180717173538 25 85 0.0 0.0 0.00 0.00 0.00 65 1020.5
20180717173038 25 62 0.0 0.0 0.00 0.00 0.00 66 1020.6
20180717172538 25 105 0.0 3.2 0.00 0.00 0.00 67 1020.6
20180717172037 25 70 3.2 4.8 0.00 0.00 0.00 67 1020.7
20180717171537 25 80 3.2 8.0 0.00 0.00 0.00 68 1020.7
20180717171037 25 119 3.2 4.8 0.00 0.00 0.00 68 1020.8
20180717170537 25 99 3.2 4.8 0.00 0.00 0.00 68 1020.8
20180717170038 25 79 4.8 8.0 0.00 0.00 0.00 67 1020.7
20180717165537 25 98 4.8 8.0 0.00 0.00 0.00 67 1020.7
20180717165037 25 119 4.8 9.7 0.00 0.00 0.00 66 1020.7
20180717164536 25 123 4.8 8.0 0.00 0.00 0.00 66 1020.7
20180717164040 25 151 4.8 11.3 0.00 0.00 0.00 66 1020.6
20180717163540 25 82 4.8 11.3 0.00 0.00 0.00 68 1020.7
20180717163040 25 44 4.8 8.0 0.00 0.00 0.00 68 1020.6
20180717162540 25 56 0.0 4.8 0.00 0.00 0.00 68 1020.5
20180717162041 25 121 3.2 8.0 0.00 0.00 0.00 69 1020.5
20180717161540 24 78 3.2 8.0 0.00 0.00 0.00 70 1020.6
20180717161040 24 83 4.8 9.7 0.00 0.00 0.00 71 1020.5
20180717160540 23 86 3.2 8.0 0.00 0.00 0.00 71 1020.6
20180717160039 23 167 4.8 8.0 0.00 0.00 0.00 71 1020.7
20180717155539 24 140 4.8 8.0 0.00 0.00 0.00 69 1020.6
20180717155039 23 164 4.8 8.0 0.00 0.00 0.00 71 1020.5
20180717154539 23 71 4.8 11.3 0.00 0.00 0.00 73 1020.5
20180717154039 23 88 3.2 4.8 0.00 0.00 0.00 74 1020.6
20180717153539 23 65 1.6 4.8 0.00 0.00 0.00 75 1020.6
20180717153039 22 109 1.6 1.6 0.00 0.00 0.00 77 1020.6
20180717152539 22 128 1.6 8.0 0.00 0.00 0.00 78 1020.5
20180717152039 22 138 3.2 8.0 0.00 0.00 0.00 78 1020.5
20180717151539 22 96 3.2 4.8 0.00 0.00 0.00 79 1020.6
20180717151039 22 33 3.2 4.8 0.00 0.00 0.00 78 1020.5
20180717150539 22 60 8.0 9.7 0.00 0.00 0.00 78 1020.5
20180717150039 22 160 4.8 8.0 0.00 0.00 0.00 78 1020.3
20180717145538 22 60 3.2 4.8 0.00 0.00 0.00 80 1020.1
20180717145038 22 45 0.0 1.6 0.00 0.00 0.00 81 1020.1
20180717144538 21 166 1.6 8.0 0.00 0.00 0.00 83 1020.2
20180717144038 21 123 1.6 4.8 0.00 0.00 0.00 84 1020.2
20180717143538 21 138 3.2 8.0 0.00 0.00 0.00 85 1020.3
20180717143038 21 144 0.0 1.6 0.00 0.00 0.00 85 1020.1
20180717142537 21 90 0.0 0.0 0.00 0.00 0.00 85 1020.0
20180717142037 21 328 0.0 1.6 0.00 0.00 0.00 84 1019.9
20180717141537 20 328 0.0 0.0 0.00 0.00 0.00 84 1019.8
20180717141037 20 7 0.0 0.0 0.00 0.00 0.00 83 1019.9
20180717140537 20 14 1.6 3.2 0.00 0.00 0.00 83 1020.0
20180717140037 20 7 0.0 0.0 0.00 0.00 0.00 85 1020.0
20180717135537 20 307 1.6 4.8 0.00 0.00 0.00 87 1019.9
20180717135037 20 51 0.0 0.0 0.00 0.00 0.00 88 1020.0
20180717134537 20 51 0.0 0.0 0.00 0.00 0.00 88 1019.9
20180717134037 20 51 0.0 0.0 0.00 0.00 0.00 88 1019.9
20180717133537 20 85 3.2 4.8 0.00 0.00 0.00 89 1020.1
20180717133037 20 46 3.2 4.8 0.00 0.00 0.00 89 1019.8
20180717132537 20 32 1.6 3.2 0.00 0.00 0.00 89 1019.9
20180717132037 20 136 4.8 8.0 0.00 0.00 0.00 88 1019.9
20180717131537 20 68 3.2 8.0 0.00 0.00 0.00 88 1019.9
20180717131037 20 70 4.8 8.0 0.00 0.00 0.00 88 1020.0
20180717130537 20 20 3.2 4.8 0.00 0.00 0.00 89 1020.1
20180717130037 20 34 4.8 9.7 0.00 0.00 0.00 89 1020.0
20180717125537 20 36 4.8 11.3 0.00 0.00 0.00 90 1019.9
20180717125037 20 41 8.0 12.9 0.00 0.00 0.00 90 1019.9
20180717124537 20 55 4.8 4.8 0.00 0.00 0.00 89 1020.1
20180717124037 19 26 4.8 14.5 0.00 0.00 0.00 89 1020.2
20180717123537 19 47 4.8 8.0 0.00 0.00 0.00 90 1020.2
20180717123037 19 30 4.8 8.0 0.00 0.00 0.00 91 1020.3
20180717122537 19 24 4.8 8.0 0.00 0.00 0.00 91 1020.3
20180717122037 19 26 3.2 4.8 0.00 0.00 0.00 91 1020.2
20180717121537 19 25 4.8 4.8 0.00 0.00 0.00 90 1020.1
20180717121037 19 12 1.6 4.8 0.00 0.00 0.00 90 1020.1
20180717120537 19 286 3.2 8.0 0.00 0.00 0.00 89 1019.8
20180717120039 19 356 4.8 4.8 0.00 0.00 0.00 89 1019.8
20180717115537 19 10 3.2 9.7 0.00 0.00 0.00 88 1019.8
20180717115037 19 13 4.8 12.9 0.00 0.00 0.00 87 1019.8
20180717114537 20 35 4.8 9.7 0.00 0.00 0.00 86 1019.6
20180717114037 20 30 9.7 9.7 0.00 0.00 0.00 86 1019.6
20180717113537 20 0 1.6 11.3 0.00 0.00 0.00 85 1019.8
20180717113041 20 357 3.2 12.9 0.00 0.00 0.00 84 1019.9
20180717112540 20 322 8.0 16.1 0.00 0.00 0.00 86 1019.5
20180717112039 20 331 1.6 11.3 0.00 0.00 0.00 86 1019.4
20180717111539 21 319 1.6 4.8 0.00 0.00 0.00 84 1019.4
20180717111039 21 80 0.0 0.0 0.00 0.00 0.00 82 1018.9
20180717110539 21 80 0.0 0.0 0.00 0.00 0.00 81 1019.0
20180717110039 21 80 0.0 0.0 0.00 0.00 0.00 80 1019.1